| time (UTC) | temp C | wind direction | speed KPH | gust KPH | rain 1hr cm | rain 24hr cm | rain mn cm | humidity % | barometer mb |
| 20260506145219 | 18 | 334 | 6.4 | 17.7 | 0.00 | 0.97 | 0.00 | 56 | 1010.5 |
| 20260506142217 | 20 | 315 | 8.0 | 20.9 | 0.00 | 0.97 | 0.00 | 50 | 1010.7 |
| 20260506141713 | 19 | 338 | 6.4 | 20.9 | 0.00 | 0.97 | 0.00 | 48 | 1010.6 |
| 20260506141215 | 19 | 277 | 6.4 | 17.7 | 0.00 | 0.97 | 0.00 | 51 | 1010.8 |
| 20260506140213 | 19 | 25 | 6.4 | 24.1 | 0.00 | 0.97 | 0.00 | 52 | 1010.8 |
| 20260506135713 | 18 | 12 | 9.7 | 24.1 | 0.00 | 0.97 | 0.00 | 55 | 1010.9 |
| 20260506135215 | 18 | 298 | 8.0 | 24.1 | 0.00 | 0.97 | 0.00 | 53 | 1010.8 |
| 20260506134206 | 19 | 313 | 8.0 | 29.0 | 0.00 | 0.97 | 0.00 | 51 | 1011.0 |
| 20260506133712 | 19 | 272 | 6.4 | 29.0 | 0.00 | 0.97 | 0.00 | 54 | 1011.0 |
| 20260506133209 | 19 | 324 | 8.0 | 17.7 | 0.00 | 0.97 | 0.00 | 52 | 1011.2 |
| 20260506132708 | 19 | 274 | 0.0 | 25.7 | 0.00 | 0.97 | 0.00 | 53 | 1011.1 |
| 20260506132213 | 19 | 264 | 4.8 | 25.7 | 0.00 | 0.97 | 0.00 | 52 | 1011.2 |
| 20260506131714 | 18 | 267 | 8.0 | 25.7 | 0.00 | 0.97 | 0.00 | 53 | 1011.1 |
| 20260506130717 | 18 | 268 | 3.2 | 24.1 | 0.00 | 0.97 | 0.00 | 55 | 1011.4 |
| 20260506130210 | 18 | 8 | 6.4 | 24.1 | 0.00 | 0.97 | 0.00 | 57 | 1011.3 |
| 20260506125718 | 18 | 344 | 9.7 | 20.9 | 0.00 | 0.97 | 0.00 | 59 | 1011.3 |
| 20260506125213 | 18 | 295 | 9.7 | 20.9 | 0.00 | 0.97 | 0.00 | 57 | 1011.3 |
| 20260506124215 | 18 | 25 | 3.2 | 24.1 | 0.00 | 0.97 | 0.00 | 55 | 1011.2 |
| 20260506123714 | 18 | 255 | 8.0 | 24.1 | 0.00 | 0.97 | 0.00 | 56 | 1011.2 |
| 20260506122710 | 18 | 355 | 9.7 | 25.7 | 0.00 | 0.97 | 0.00 | 60 | 1011.4 |
| 20260506121709 | 17 | 4 | 8.0 | 12.9 | 0.00 | 0.97 | 0.00 | 58 | 1011.4 |
| 20260506121216 | 17 | 278 | 3.2 | 17.7 | 0.00 | 0.97 | 0.00 | 57 | 1011.5 |
| 20260506120718 | 18 | 42 | 3.2 | 17.7 | 0.00 | 0.97 | 0.00 | 57 | 1011.4 |
| 20260506120210 | 18 | 341 | 6.4 | 20.9 | 0.00 | 0.97 | 0.00 | 57 | 1011.6 |
| 20260506115709 | 17 | 300 | 4.8 | 20.9 | 0.00 | 0.97 | 0.00 | 57 | 1011.6 |
| 20260506115211 | 17 | 336 | 6.4 | 20.9 | 0.00 | 0.97 | 0.00 | 60 | 1011.6 |
| 20260506114719 | 17 | 244 | 6.4 | 20.9 | 0.00 | 0.97 | 0.00 | 58 | 1011.7 |
| 20260506114209 | 17 | 315 | 3.2 | 25.7 | 0.00 | 0.97 | 0.00 | 57 | 1012.0 |
| 20260506113706 | 17 | 278 | 8.0 | 25.7 | 0.00 | 0.97 | 0.00 | 61 | 1012.0 |
| 20260506113210 | 17 | 265 | 6.4 | 20.9 | 0.00 | 0.97 | 0.00 | 57 | 1012.0 |
| 20260506112716 | 17 | 278 | 4.8 | 22.5 | 0.00 | 0.97 | 0.00 | 57 | 1012.0 |
| 20260506111707 | 17 | 275 | 6.4 | 19.3 | 0.00 | 0.97 | 0.00 | 59 | 1012.1 |
| 20260506111205 | 17 | 278 | 8.0 | 19.3 | 0.00 | 0.97 | 0.00 | 61 | 1012.2 |
| 20260506110218 | 17 | 251 | 3.2 | 22.5 | 0.00 | 0.97 | 0.00 | 60 | 1012.2 |
| 20260506105719 | 16 | 251 | 3.2 | 22.5 | 0.00 | 0.97 | 0.00 | 61 | 1012.2 |
| 20260506104712 | 16 | 288 | 1.6 | 20.9 | 0.00 | 0.97 | 0.00 | 61 | 1012.2 |
| 20260506104209 | 16 | 331 | 3.2 | 17.7 | 0.00 | 0.97 | 0.00 | 63 | 1012.3 |
| 20260506103217 | 16 | 0 | 0.0 | 9.7 | 0.00 | 0.97 | 0.00 | 62 | 1012.4 |
| 20260506102211 | 16 | 284 | 0.0 | 16.1 | 0.00 | 0.97 | 0.00 | 65 | 1012.4 |
| 20260506101719 | 16 | 248 | 1.6 | 16.1 | 0.00 | 0.97 | 0.00 | 63 | 1012.4 |
| 20260506101216 | 16 | 344 | 3.2 | 16.1 | 0.00 | 0.97 | 0.00 | 62 | 1012.4 |
| 20260506100236 | 16 | 271 | 1.6 | 11.3 | 0.00 | 0.97 | 0.00 | 62 | 1012.4 |
| 20260506095217 | 16 | 255 | 1.6 | 11.3 | 0.00 | 0.97 | 0.00 | 64 | 1012.5 |
| 20260506094705 | 16 | 271 | 0.0 | 11.3 | 0.00 | 0.97 | 0.00 | 62 | 1012.5 |
| 20260506094218 | 15 | 302 | 1.6 | 11.3 | 0.00 | 0.97 | 0.00 | 63 | 1012.5 |
| 20260506093711 | 15 | 291 | 1.6 | 17.7 | 0.00 | 0.97 | 0.00 | 65 | 1012.5 |
| 20260506092706 | 15 | 250 | 3.2 | 12.9 | 0.00 | 0.97 | 0.00 | 67 | 1012.5 |
| 20260506091707 | 15 | 279 | 1.6 | 14.5 | 0.00 | 0.97 | 0.00 | 66 | 1012.6 |
| 20260506091219 | 15 | 253 | 1.6 | 14.5 | 0.00 | 0.97 | 0.00 | 68 | 1012.5 |
| 20260506090207 | 15 | 285 | 4.8 | 16.1 | 0.00 | 0.97 | 0.00 | 68 | 1012.5 |
| 20260506085705 | 15 | 264 | 3.2 | 16.1 | 0.00 | 0.97 | 0.00 | 67 | 1012.5 |
| 20260506085207 | 15 | 275 | 4.8 | 17.7 | 0.00 | 0.97 | 0.00 | 68 | 1012.4 |
| 20260506084713 | 15 | 307 | 1.6 | 17.7 | 0.00 | 0.97 | 0.00 | 69 | 1012.6 |
| 20260506083708 | 15 | 286 | 1.6 | 16.1 | 0.00 | 0.97 | 0.00 | 68 | 1012.4 |
| 20260506082718 | 15 | 279 | 1.6 | 3.2 | 0.00 | 0.97 | 0.00 | 70 | 1012.5 |
| 20260506082208 | 14 | 244 | 0.0 | 14.5 | 0.00 | 0.97 | 0.00 | 70 | 1012.5 |
| 20260506081709 | 14 | 0 | 0.0 | 16.1 | 0.00 | 0.97 | 0.00 | 72 | 1012.5 |
| 20260506081217 | 14 | 261 | 3.2 | 16.1 | 0.00 | 0.97 | 0.00 | 73 | 1012.6 |
| 20260506080724 | 13 | 271 | 1.6 | 16.1 | 0.00 | 0.97 | 0.00 | 74 | 1012.6 |
| 20260506080217 | 13 | 0 | 0.0 | 0.0 | 0.00 | 0.97 | 0.00 | 72 | 1012.7 |
| 20260506072717 | 12 | 0 | 0.0 | 0.0 | 0.00 | 0.97 | 0.00 | 78 | 1012.6 |
| 20260506072208 | 12 | 0 | 0.0 | 0.0 | 0.00 | 0.97 | 0.00 | 79 | 1012.7 |
| 20260506071714 | 12 | 0 | 0.0 | 0.0 | 0.00 | 0.97 | 0.00 | 79 | 1012.7 |
| 20260506071210 | 12 | 0 | 0.0 | 0.0 | 0.00 | 0.97 | 0.00 | 81 | 1012.7 |
| 20260506070707 | 12 | 0 | 0.0 | 0.0 | 0.00 | 0.97 | 0.00 | 83 | 1012.7 |
| 20260506062219 | 11 | 137 | 0.0 | 4.8 | 0.00 | 0.97 | 0.00 | 87 | 1012.5 |
| 20260506061706 | 11 | 0 | 0.0 | 4.8 | 0.00 | 0.97 | 0.00 | 88 | 1012.6 |
| 20260506061241 | 11 | 111 | 1.6 | 1.6 | 0.00 | 0.97 | 0.00 | 89 | 1012.5 |
| 20260506060209 | 11 | 0 | 0.0 | 4.8 | 0.00 | 0.97 | 0.00 | 91 | 1012.5 |
| 20260506051205 | 10 | 0 | 0.0 | 0.0 | 0.00 | 0.97 | 0.00 | 93 | 1012.2 |
| 20260506050718 | 10 | 0 | 0.0 | 0.0 | 0.00 | 0.97 | 0.00 | 93 | 1012.1 |
| 20260506050205 | 10 | 0 | 0.0 | 0.0 | 0.00 | 0.97 | 0.00 | 93 | 1012.0 |
| 20260506044713 | 10 | 0 | 0.0 | 3.2 | 0.00 | 0.97 | 0.00 | 92 | 1012.0 |
| 20260506044217 | 10 | 0 | 0.0 | 6.4 | 0.00 | 0.97 | 0.00 | 92 | 1011.9 |
| 20260506043713 | 10 | 271 | 0.0 | 6.4 | 0.00 | 0.97 | 0.00 | 92 | 1011.7 |
| 20260506043207 | 10 | 268 | 3.2 | 6.4 | 0.00 | 0.97 | 0.00 | 91 | 1011.9 |
| 20260506042217 | 10 | 240 | 1.6 | 6.4 | 0.00 | 0.97 | 0.00 | 91 | 1011.6 |
| 20260506041705 | 10 | 251 | 1.6 | 6.4 | 0.00 | 0.97 | 0.00 | 91 | 1011.6 |
| 20260506041216 | 10 | 243 | 0.0 | 3.2 | 0.00 | 0.97 | 0.00 | 91 | 1011.6 |
| 20260506040705 | 10 | 0 | 0.0 | 3.2 | 0.00 | 0.97 | 0.00 | 92 | 1011.6 |
| 20260506040207 | 10 | 286 | 0.0 | 1.6 | 0.00 | 0.97 | 0.00 | 92 | 1011.5 |
| 20260506035718 | 10 | 275 | 0.0 | 1.6 | 0.00 | 0.97 | 0.00 | 92 | 1011.5 |
| 20260506035208 | 10 | 265 | 0.0 | 0.0 | 0.00 | 0.97 | 0.00 | 92 | 1011.6 |
| 20260506034705 | 10 | 0 | 0.0 | 0.0 | 0.00 | 0.97 | 0.00 | 92 | 1011.6 |
| 20260506034215 | 10 | 0 | 0.0 | 1.6 | 0.00 | 0.97 | 0.00 | 92 | 1011.6 |
| 20260506033210 | 10 | 268 | 0.0 | 1.6 | 0.00 | 0.97 | 0.00 | 92 | 1011.7 |
| 20260506032708 | 10 | 0 | 0.0 | 9.7 | 0.00 | 0.97 | 0.00 | 92 | 1011.7 |
| 20260506032215 | 10 | 0 | 0.0 | 11.3 | 0.00 | 0.97 | 0.00 | 92 | 1011.7 |
| 20260506031715 | 10 | 74 | 3.2 | 11.3 | 0.00 | 0.97 | 0.00 | 92 | 1011.7 |
| 20260506031217 | 10 | 97 | 1.6 | 11.3 | 0.00 | 0.97 | 0.00 | 92 | 1011.7 |
| 20260506030707 | 10 | 324 | 0.0 | 0.0 | 0.00 | 0.97 | 0.00 | 92 | 1011.7 |
| 20260506030215 | 10 | 0 | 0.0 | 0.0 | 0.00 | 0.97 | 0.00 | 92 | 1011.6 |
| 20260506025723 | 10 | 0 | 0.0 | 0.0 | 0.00 | 0.97 | 0.00 | 92 | 1011.6 |
| 20260506025205 | 10 | 0 | 0.0 | 6.4 | 0.00 | 0.99 | 0.00 | 92 | 1011.6 |
| 20260506024716 | 10 | 0 | 0.0 | 6.4 | 0.00 | 0.99 | 0.00 | 92 | 1011.7 |
| 20260506024208 | 10 | 230 | 1.6 | 3.2 | 0.00 | 0.99 | 0.00 | 92 | 1011.7 |
| 20260506023715 | 10 | 239 | 0.0 | 3.2 | 0.00 | 0.99 | 0.00 | 91 | 1011.7 |
| 20260506023204 | 10 | 0 | 0.0 | 3.2 | 0.00 | 0.99 | 0.00 | 92 | 1011.7 |
| 20260506021715 | 10 | 0 | 0.0 | 0.0 | 0.00 | 0.99 | 0.00 | 92 | 1011.7 |
| 20260506021218 | 10 | 0 | 0.0 | 4.8 | 0.00 | 0.99 | 0.00 | 92 | 1011.6 |
| 20260506020715 | 10 | 0 | 0.0 | 4.8 | 0.00 | 0.99 | 0.00 | 92 | 1011.6 |
| 20260506020216 | 10 | 230 | 0.0 | 4.8 | 0.00 | 0.99 | 0.00 | 92 | 1011.6 |
| 20260506015718 | 10 | 0 | 0.0 | 0.0 | 0.00 | 0.99 | 0.00 | 92 | 1011.6 |
| 20260506014716 | 10 | 0 | 0.0 | 1.6 | 0.00 | 0.99 | 0.00 | 92 | 1011.7 |
| 20260506014205 | 10 | 257 | 0.0 | 3.2 | 0.00 | 0.99 | 0.00 | 91 | 1011.6 |
| 20260506013710 | 10 | 0 | 0.0 | 3.2 | 0.00 | 0.99 | 0.00 | 91 | 1011.7 |
| 20260506012708 | 10 | 0 | 0.0 | 0.0 | 0.00 | 0.99 | 0.00 | 90 | 1011.5 |
| 20260506012214 | 10 | 0 | 0.0 | 0.0 | 0.00 | 0.99 | 0.00 | 90 | 1011.5 |
| 20260506011719 | 11 | 0 | 0.0 | 6.4 | 0.00 | 0.99 | 0.00 | 89 | 1011.6 |
| 20260506011212 | 11 | 0 | 0.0 | 6.4 | 0.00 | 0.99 | 0.00 | 89 | 1011.5 |
| 20260506010712 | 11 | 194 | 1.6 | 8.0 | 0.00 | 0.99 | 0.00 | 89 | 1011.6 |
| 20260506010205 | 11 | 209 | 3.2 | 8.0 | 0.00 | 0.99 | 0.00 | 89 | 1011.6 |
| 20260506004218 | 11 | 219 | 4.8 | 8.0 | 0.00 | 0.99 | 0.00 | 89 | 1011.7 |
| 20260506003212 | 11 | 254 | 4.8 | 19.3 | 0.00 | 0.99 | 0.00 | 89 | 1011.7 |
| 20260506002706 | 11 | 212 | 4.8 | 20.9 | 0.00 | 0.99 | 0.00 | 89 | 1012.0 |
| 20260506002209 | 11 | 267 | 6.4 | 24.1 | 0.00 | 0.99 | 0.00 | 89 | 1012.0 |
| 20260506001732 | 11 | 250 | 9.7 | 24.1 | 0.00 | 0.99 | 0.00 | 88 | 1012.1 |
| 20260506001210 | 11 | 251 | 11.3 | 24.1 | 0.00 | 0.99 | 0.00 | 88 | 1012.1 |
| 20260506000705 | 11 | 0 | 0.0 | 0.0 | 0.00 | 0.99 | 0.00 | 89 | 1012.0 |
| 20260506000208 | 11 | 0 | 0.0 | 0.0 | 0.00 | 0.99 | 0.00 | 90 | 1012.0 |
| 20260505235715 | 10 | 0 | 0.0 | 0.0 | 0.00 | 0.99 | 0.00 | 91 | 1012.0 |
| 20260505234728 | 10 | 0 | 0.0 | 0.0 | 0.00 | 0.99 | 0.00 | 94 | 1012.2 |
| 20260505234205 | 9 | 0 | 0.0 | 0.0 | 0.00 | 0.99 | 0.00 | 94 | 1012.3 |
| 20260505233709 | 9 | 0 | 0.0 | 0.0 | 0.00 | 0.99 | 0.00 | 94 | 1012.2 |
| 20260505233209 | 9 | 0 | 0.0 | 0.0 | 0.00 | 0.99 | 0.00 | 94 | 1012.3 |
| 20260505232719 | 9 | 0 | 0.0 | 0.0 | 0.00 | 0.99 | 0.00 | 94 | 1012.3 |
| 20260505232215 | 9 | 0 | 0.0 | 0.0 | 0.00 | 0.99 | 0.00 | 94 | 1012.3 |
| 20260505231707 | 9 | 0 | 0.0 | 0.0 | 0.00 | 0.99 | 0.00 | 94 | 1012.4 |
| 20260505231210 | 9 | 0 | 0.0 | 0.0 | 0.00 | 0.99 | 0.00 | 94 | 1012.3 |
| 20260505230206 | 10 | 0 | 0.0 | 0.0 | 0.00 | 0.99 | 0.00 | 93 | 1012.2 |
| 20260505225715 | 10 | 0 | 0.0 | 0.0 | 0.00 | 0.99 | 0.00 | 93 | 1012.3 |
| 20260505223709 | 10 | 0 | 0.0 | 0.0 | 0.00 | 0.99 | 0.00 | 93 | 1012.5 |
| 20260505223215 | 10 | 0 | 0.0 | 0.0 | 0.00 | 0.99 | 0.00 | 93 | 1012.4 |
| 20260505222719 | 10 | 0 | 0.0 | 0.0 | 0.00 | 0.99 | 0.00 | 93 | 1012.5 |
| 20260505222213 | 10 | 0 | 0.0 | 0.0 | 0.00 | 0.99 | 0.00 | 92 | 1012.5 |
| 20260505221714 | 10 | 0 | 0.0 | 0.0 | 0.00 | 0.99 | 0.00 | 93 | 1012.6 |
| 20260505221206 | 10 | 0 | 0.0 | 0.0 | 0.00 | 0.99 | 0.00 | 92 | 1012.7 |
| 20260505220217 | 11 | 0 | 0.0 | 0.0 | 0.00 | 0.99 | 0.99 | 92 | 1012.8 |
| 20260505215708 | 11 | 0 | 0.0 | 0.0 | 0.00 | 0.99 | 0.99 | 93 | 1012.8 |
| 20260505215215 | 11 | 0 | 0.0 | 0.0 | 0.00 | 0.99 | 0.99 | 93 | 1012.8 |
| 20260505214713 | 11 | 0 | 0.0 | 0.0 | 0.00 | 0.99 | 0.99 | 93 | 1012.9 |
| 20260505214212 | 11 | 0 | 0.0 | 0.0 | 0.00 | 0.99 | 0.99 | 93 | 1012.9 |
| 20260505213706 | 11 | 0 | 0.0 | 0.0 | 0.00 | 0.99 | 0.99 | 93 | 1012.9 |
| 20260505213212 | 11 | 0 | 0.0 | 0.0 | 0.00 | 0.99 | 0.99 | 93 | 1013.0 |
| 20260505212706 | 11 | 0 | 0.0 | 0.0 | 0.00 | 0.99 | 0.99 | 93 | 1013.1 |
| 20260505212231 | 11 | 0 | 0.0 | 0.0 | 0.00 | 0.99 | 0.99 | 93 | 1013.1 |
| 20260505211724 | 11 | 0 | 0.0 | 0.0 | 0.00 | 1.02 | 0.99 | 93 | 1013.1 |
| 20260505211205 | 11 | 0 | 0.0 | 0.0 | 0.00 | 1.02 | 0.99 | 93 | 1013.2 |
| 20260505210711 | 11 | 0 | 0.0 | 0.0 | 0.00 | 1.02 | 0.99 | 93 | 1013.2 |
| 20260505205710 | 11 | 0 | 0.0 | 0.0 | 0.00 | 1.02 | 0.99 | 93 | 1013.1 |
| 20260505204707 | 11 | 0 | 0.0 | 0.0 | 0.00 | 1.02 | 0.99 | 92 | 1013.1 |
| 20260505204210 | 11 | 0 | 0.0 | 0.0 | 0.00 | 1.02 | 0.99 | 92 | 1013.2 |
| 20260505203718 | 11 | 0 | 0.0 | 0.0 | 0.00 | 1.02 | 0.99 | 92 | 1013.1 |
| 20260505203217 | 11 | 0 | 0.0 | 0.0 | 0.00 | 1.02 | 0.99 | 92 | 1013.1 |
| 20260505202706 | 11 | 0 | 0.0 | 0.0 | 0.00 | 1.02 | 0.99 | 91 | 1013.1 |
| 20260505202210 | 11 | 0 | 0.0 | 0.0 | 0.00 | 1.02 | 0.99 | 91 | 1013.0 |
| 20260505201209 | 11 | 0 | 0.0 | 0.0 | 0.00 | 1.02 | 0.99 | 91 | 1013.0 |
| 20260505200713 | 11 | 0 | 0.0 | 0.0 | 0.00 | 1.02 | 0.99 | 91 | 1013.0 |
| 20260505200213 | 11 | 0 | 0.0 | 0.0 | 0.00 | 1.02 | 0.99 | 90 | 1012.9 |
| 20260505195709 | 11 | 0 | 0.0 | 0.0 | 0.00 | 1.02 | 0.99 | 90 | 1012.8 |
| 20260505195206 | 11 | 0 | 0.0 | 0.0 | 0.00 | 1.02 | 0.99 | 89 | 1012.7 |
| 20260505194714 | 11 | 0 | 0.0 | 0.0 | 0.00 | 1.02 | 0.99 | 89 | 1012.6 |
| 20260505194206 | 11 | 0 | 0.0 | 0.0 | 0.00 | 1.02 | 0.99 | 89 | 1012.6 |
| 20260505193708 | 11 | 0 | 0.0 | 0.0 | 0.00 | 1.02 | 0.99 | 89 | 1012.5 |
| 20260505192207 | 11 | 0 | 0.0 | 0.0 | 0.00 | 1.02 | 0.99 | 89 | 1012.4 |
| 20260505191718 | 11 | 0 | 0.0 | 0.0 | 0.00 | 1.02 | 0.99 | 89 | 1012.4 |
| 20260505190710 | 11 | 0 | 0.0 | 0.0 | 0.00 | 1.02 | 0.99 | 90 | 1012.3 |
| 20260505190212 | 11 | 0 | 0.0 | 0.0 | 0.00 | 1.02 | 0.99 | 90 | 1012.4 |
| 20260505185713 | 11 | 0 | 0.0 | 0.0 | 0.00 | 1.02 | 0.99 | 90 | 1012.4 |
| 20260505185205 | 11 | 0 | 0.0 | 0.0 | 0.00 | 1.04 | 0.99 | 90 | 1012.4 |
| 20260505184710 | 11 | 0 | 0.0 | 0.0 | 0.00 | 1.07 | 0.99 | 90 | 1012.4 |
| 20260505184210 | 11 | 0 | 0.0 | 0.0 | 0.00 | 1.09 | 0.99 | 90 | 1012.4 |
| 20260505183204 | 11 | 0 | 0.0 | 0.0 | 0.00 | 1.14 | 0.99 | 89 | 1012.4 |
| 20260505182205 | 11 | 0 | 0.0 | 0.0 | 0.00 | 1.14 | 0.99 | 90 | 1012.5 |
| 20260505181707 | 11 | 0 | 0.0 | 0.0 | 0.00 | 1.14 | 0.99 | 89 | 1012.5 |
| 20260505180719 | 11 | 0 | 0.0 | 0.0 | 0.00 | 1.22 | 0.99 | 89 | 1012.7 |
| 20260505180213 | 11 | 0 | 0.0 | 0.0 | 0.00 | 1.30 | 0.99 | 89 | 1012.7 |
| 20260505174212 | 11 | 0 | 0.0 | 12.9 | 0.05 | 1.37 | 0.99 | 88 | 1012.7 |
| 20260505173718 | 11 | 0 | 0.0 | 12.9 | 0.08 | 1.37 | 0.99 | 87 | 1012.6 |
| 20260505173209 | 11 | 226 | 1.6 | 20.9 | 0.10 | 1.40 | 0.99 | 86 | 1012.6 |
| 20260505172709 | 11 | 295 | 0.0 | 20.9 | 0.13 | 1.40 | 0.99 | 86 | 1012.5 |
| 20260505172206 | 11 | 247 | 1.6 | 20.9 | 0.15 | 1.40 | 0.99 | 86 | 1012.7 |
| 20260505171713 | 11 | 239 | 3.2 | 19.3 | 0.20 | 1.42 | 0.99 | 86 | 1012.6 |
| 20260505170710 | 11 | 260 | 8.0 | 24.1 | 0.23 | 1.42 | 0.99 | 86 | 1012.4 |
| 20260505170211 | 11 | 226 | 9.7 | 25.7 | 0.38 | 1.45 | 0.99 | 88 | 1012.5 |
| 20260505165710 | 11 | 258 | 8.0 | 27.4 | 0.74 | 1.47 | 0.99 | 88 | 1012.5 |
| 20260505165214 | 11 | 234 | 12.9 | 29.0 | 0.97 | 1.55 | 0.99 | 89 | 1012.5 |
| 20260505164705 | 11 | 241 | 14.5 | 37.0 | 0.91 | 1.63 | 0.94 | 89 | 1012.5 |
| 20260505163213 | 11 | 299 | 14.5 | 37.0 | 0.84 | 1.60 | 0.86 | 88 | 1012.0 |
| 20260505162713 | 11 | 296 | 12.9 | 37.0 | 0.84 | 1.60 | 0.86 | 88 | 1012.1 |
| 20260505162206 | 11 | 250 | 9.7 | 37.0 | 0.79 | 1.55 | 0.79 | 88 | 1012.1 |
| 20260505161729 | 11 | 247 | 14.5 | 37.0 | 0.74 | 1.50 | 0.76 | 88 | 1012.2 |
| 20260505161219 | 11 | 236 | 12.9 | 41.8 | 0.74 | 1.50 | 0.76 | 87 | 1012.3 |
| 20260505153215 | 17 | 0 | 0.0 | 0.0 | 0.00 | 0.76 | 0.03 | 64 | 1010.1 |
| 20260505152719 | 18 | 0 | 0.0 | 0.0 | 0.00 | 0.76 | 0.03 | 63 | 1010.1 |
| 20260505152213 | 18 | 0 | 0.0 | 0.0 | 0.00 | 0.76 | 0.03 | 62 | 1010.1 |
| 20260505151717 | 18 | 0 | 0.0 | 0.0 | 0.00 | 0.76 | 0.03 | 63 | 1010.1 |
| 20260505151216 | 18 | 0 | 0.0 | 0.0 | 0.00 | 0.76 | 0.03 | 63 | 1010.0 |
| 20260505150716 | 18 | 0 | 0.0 | 0.0 | 0.00 | 0.76 | 0.03 | 65 | 1009.9 |
| 20260505150215 | 18 | 0 | 0.0 | 0.0 | 0.00 | 0.76 | 0.03 | 62 | 1009.9 |